Location: Dompnac
(44.5644°N, 4.1026°E)
Time: 20:15:39
(UTC+00:00)

Abrixas rocket - Pass Details

Date: 19 September 2020
Orbit: 328 x 335 km, 48.4° (Epoch: 28 October)

Event Time Altitude Azimuth Distance (km) Brightness Sun altitude
Rises 19:54:36 0° 287° (WNW) 2,092 7.2 -22.9°
Reaches altitude 10° 19:56:41 10° 296° (WNW) 1,254 5.8 -23.2°
Enters shadow 19:58:04 23° 314° (NW) 759 4.3 -23.5°
